CW5619 Weather Reports


Display with metric or nautical units.
time (UTC)temp
F
wind
direction
speed
MPH
gust
MPH
rain 1hr
in
rain 24hr
in
rain mn
in
humidity
%
barometer
mb
20260905010404 94 218 2.0 7.0 0.00 0.10 0.00 30 1012.1
20260905005903 94 18 1.0 6.0 0.00 0.10 0.00 30 1012.0
20260905005403 95 304 2.0 7.0 0.00 0.10 0.00 29 1012.0
20260905004903 95 13 2.0 7.0 0.00 0.10 0.00 29 1011.9
20260905004404 95 238 2.0 7.0 0.00 0.10 0.00 29 1012.0
20260905003904 95 196 2.0 3.0 0.00 0.10 0.00 28 1012.0
20260905002903 96 332 1.0 5.0 0.00 0.10 0.00 28 1012.0
20260905002403 96 135 1.0 6.0 0.00 0.10 0.00 28 1011.9
20260905001904 96 340 2.0 6.0 0.00 0.10 0.00 28 1011.8
20260905001403 96 266 1.0 7.0 0.00 0.10 0.00 27 1011.8
20260905000904 96 335 3.0 8.0 0.00 0.10 0.00 27 1011.8
20260905000404 97 251 2.0 8.0 0.00 0.10 0.00 26 1011.8
20260904235403 97 238 2.0 7.0 0.00 0.10 0.00 26 1011.6
20260904234403 97 237 2.0 6.0 0.00 0.10 0.00 28 1011.7
20260904233903 97 16 2.0 5.0 0.00 0.10 0.00 29 1011.8
20260904232903 97 45 1.0 7.0 0.00 0.10 0.00 29 1011.8
20260904231404 98 253 3.0 7.0 0.00 0.10 0.00 27 1012.0
20260904230903 97 65 1.0 7.0 0.00 0.10 0.00 31 1012.0
20260904230403 96 292 2.0 6.0 0.00 0.10 0.00 31 1012.0
20260904225904 96 213 1.0 7.0 0.00 0.10 0.00 30 1012.0
20260904224904 96 198 1.0 7.0 0.00 0.10 0.00 32 1012.2
20260904224404 97 163 2.0 7.0 0.00 0.10 0.00 30 1012.2
20260904223904 98 230 2.0 5.0 0.00 0.10 0.00 30 1012.2
20260904223404 98 67 0.0 9.0 0.00 0.10 0.00 30 1012.3
20260904222903 98 70 2.0 9.0 0.00 0.10 0.00 30 1012.3
20260904221904 98 213 2.0 9.0 0.00 0.10 0.00 30 1012.5
20260904221403 98 222 2.0 8.0 0.00 0.10 0.00 29 1012.4
20260904220904 99 343 1.0 6.0 0.00 0.10 0.00 29 1012.6
20260904220403 98 306 2.0 7.0 0.00 0.10 0.00 29 1012.5
20260904215904 99 353 3.0 7.0 0.00 0.10 0.00 29 1012.6
20260904214903 98 242 2.0 8.0 0.00 0.10 0.00 30 1012.7
20260904214403 98 318 2.0 9.0 0.00 0.10 0.00 29 1012.8
20260904213904 98 10 4.0 9.0 0.00 0.10 0.00 30 1012.8
20260904213404 97 39 2.0 8.0 0.00 0.10 0.00 29 1012.8
20260904212904 99 227 3.0 8.0 0.00 0.10 0.00 28 1012.9
20260904212403 98 101 2.0 6.0 0.00 0.10 0.00 28 1012.9
20260904211904 98 227 2.0 10.0 0.00 0.10 0.00 30 1013.0
20260904211403 98 254 3.0 10.0 0.00 0.10 0.00 28 1013.1
20260904210904 99 228 4.0 10.0 0.00 0.10 0.00 28 1013.1
20260904210403 98 227 3.0 8.0 0.00 0.10 0.00 30 1013.2
20260904205904 98 338 3.0 7.0 0.00 0.10 0.00 30 1013.2
20260904204403 96 225 1.0 6.0 0.00 0.10 0.00 32 1013.3
20260904203903 96 211 2.0 5.0 0.00 0.10 0.00 34 1013.4
20260904203403 97 200 3.0 6.0 0.00 0.10 0.00 32 1013.5
20260904202904 97 228 1.0 9.0 0.00 0.10 0.00 33 1013.6
20260904202404 98 299 3.0 9.0 0.00 0.10 0.00 34 1013.7
20260904201903 96 242 3.0 7.0 0.00 0.10 0.00 36 1013.7
20260904201404 97 40 2.0 8.0 0.00 0.10 0.00 34 1013.8
20260904200903 97 233 3.0 8.0 0.00 0.10 0.00 35 1013.9
20260904200404 96 234 4.0 8.0 0.00 0.10 0.00 37 1014.0
20260904195904 96 147 2.0 5.0 0.00 0.10 0.00 36 1014.1
20260904195404 96 30 2.0 5.0 0.00 0.10 0.00 38 1014.0
20260904194903 95 212 1.0 3.0 0.00 0.10 0.00 39 1014.1
20260904194403 94 105 1.0 3.0 0.00 0.10 0.00 39 1014.2
20260904193903 94 56 1.0 7.0 0.00 0.10 0.00 40 1014.3
20260904192904 94 86 1.0 6.0 0.00 0.10 0.00 40 1014.4
20260904192403 94 193 2.0 6.0 0.00 0.10 0.00 39 1014.6
20260904191903 94 250 1.0 7.0 0.00 0.10 0.00 41 1014.6
20260904191403 94 230 2.0 7.0 0.00 0.10 0.00 40 1014.6
20260904190903 94 219 2.0 6.0 0.00 0.10 0.00 39 1014.6
20260904190404 93 55 2.0 5.0 0.00 0.10 0.00 40 1014.7
20260904185904 93 48 2.0 5.0 0.00 0.10 0.00 40 1014.8
20260904185403 92 38 2.0 6.0 0.00 0.10 0.00 40 1014.8
20260904184903 92 122 2.0 6.0 0.00 0.10 0.00 40 1014.9
20260904184403 93 183 1.0 6.0 0.00 0.10 0.00 39 1014.9
20260904183903 93 92 2.0 6.0 0.00 0.10 0.00 40 1015.0
20260904182903 92 39 2.0 6.0 0.00 0.10 0.00 41 1015.1
20260904181403 91 153 1.0 3.0 0.00 0.10 0.00 43 1015.3
20260904180904 91 94 2.0 5.0 0.00 0.10 0.00 43 1015.4
20260904180403 91 148 1.0 5.0 0.00 0.10 0.00 44 1015.4
20260904175903 91 240 2.0 6.0 0.00 0.10 0.00 44 1015.4
20260904175403 91 188 2.0 6.0 0.00 0.10 0.00 46 1015.4
20260904174904 90 141 1.0 8.0 0.00 0.10 0.00 50 1015.5
20260904174403 90 159 3.0 8.0 0.00 0.10 0.00 47 1015.5
20260904173904 90 80 2.0 6.0 0.00 0.10 0.00 51 1015.7
20260904173403 89 94 2.0 7.0 0.00 0.10 0.00 50 1015.8
20260904172904 89 165 1.0 7.0 0.00 0.10 0.00 51 1015.9
20260904172403 89 113 3.0 10.0 0.00 0.10 0.00 51 1015.8
20260904171904 89 113 3.0 10.0 0.00 0.10 0.00 53 1016.0
20260904171403 88 93 2.0 10.0 0.00 0.10 0.00 53 1016.0
20260904170903 88 140 1.0 8.0 0.00 0.10 0.00 54 1016.1
20260904170404 87 93 4.0 8.0 0.00 0.10 0.00 54 1016.2
20260904165904 88 118 2.0 10.0 0.00 0.10 0.00 56 1016.1
20260904165403 87 115 2.0 10.0 0.00 0.10 0.00 56 1016.0
20260904164904 87 142 3.0 9.0 0.00 0.10 0.00 55 1016.0
20260904164403 87 139 2.0 8.0 0.00 0.10 0.00 56 1016.0
20260904163904 86 103 2.0 8.0 0.00 0.10 0.00 57 1015.9
20260904162404 86 116 3.0 7.0 0.00 0.10 0.00 57 1015.9
20260904161903 86 95 4.0 8.0 0.00 0.10 0.00 57 1015.9
20260904160903 85 211 4.0 10.0 0.00 0.10 0.00 58 1015.7
20260904160404 85 99 2.0 8.0 0.00 0.10 0.00 58 1015.7
20260904155903 85 121 2.0 12.0 0.00 0.10 0.00 59 1015.8
20260904155404 84 41 3.0 12.0 0.00 0.10 0.00 59 1015.7
20260904154903 84 134 3.0 8.0 0.00 0.10 0.00 59 1015.7
20260904154404 84 151 2.0 12.0 0.00 0.10 0.00 59 1015.6
20260904153903 84 106 3.0 12.0 0.00 0.10 0.00 60 1015.6
20260904153404 84 92 3.0 8.0 0.00 0.10 0.00 60 1015.5
20260904152904 84 111 2.0 8.0 0.00 0.10 0.00 61 1015.7
20260904152404 83 109 3.0 8.0 0.00 0.10 0.00 62 1015.6
20260904151904 82 106 3.0 8.0 0.00 0.10 0.00 63 1015.6
20260904151403 82 92 2.0 7.0 0.00 0.10 0.00 62 1015.6
20260904150904 82 164 2.0 3.0 0.00 0.10 0.00 63 1015.6
20260904150403 82 99 1.0 8.0 0.00 0.10 0.00 64 1015.7
20260904145904 82 146 2.0 8.0 0.00 0.10 0.00 64 1015.5
20260904144903 82 119 2.0 10.0 0.00 0.10 0.00 64 1015.5
20260904144404 82 109 2.0 10.0 0.00 0.10 0.00 64 1015.5
20260904143904 81 145 2.0 7.0 0.00 0.10 0.00 64 1015.5
20260904143404 81 113 2.0 7.0 0.00 0.10 0.00 65 1015.5
20260904142903 81 143 2.0 7.0 0.00 0.10 0.00 65 1015.5
20260904141904 80 143 2.0 7.0 0.00 0.10 0.00 66 1015.4
20260904140904 80 156 2.0 7.0 0.00 0.10 0.00 67 1015.3
20260904140403 79 106 2.0 3.0 0.00 0.10 0.00 68 1015.3
20260904135904 79 139 1.0 6.0 0.00 0.10 0.00 68 1015.2
20260904135403 79 115 2.0 6.0 0.00 0.10 0.00 69 1015.2
20260904134904 79 137 2.0 3.0 0.00 0.10 0.00 69 1015.1
20260904134403 78 60 1.0 7.0 0.00 0.10 0.00 69 1015.0
20260904133903 78 114 2.0 7.0 0.00 0.10 0.00 69 1014.9
20260904133403 78 111 1.0 3.0 0.00 0.10 0.00 69 1014.8
20260904132903 78 109 1.0 3.0 0.00 0.10 0.00 69 1014.7
20260904131904 78 111 0.0 3.0 0.00 0.10 0.00 69 1014.7
20260904131403 78 117 1.0 3.0 0.00 0.10 0.00 69 1014.6
20260904130404 78 136 1.0 3.0 0.00 0.10 0.00 69 1014.5
20260904125904 78 119 1.0 3.0 0.00 0.10 0.00 69 1014.4
20260904125403 78 114 1.0 3.0 0.00 0.10 0.00 69 1014.3
20260904124903 78 121 2.0 3.0 0.00 0.10 0.00 69 1014.3
20260904122903 78 101 2.0 7.0 0.00 0.10 0.00 69 1014.0
20260904122403 78 98 2.0 7.0 0.00 0.10 0.00 69 1013.9
20260904121403 79 121 1.0 3.0 0.00 0.10 0.00 68 1013.8
20260904120903 79 132 2.0 5.0 0.00 0.10 0.00 68 1013.8
20260904120403 79 113 1.0 5.0 0.00 0.10 0.00 67 1013.7
20260904115903 79 125 1.0 3.0 0.00 0.10 0.00 67 1013.7
20260904115404 79 110 1.0 3.0 0.00 0.10 0.00 67 1013.8
20260904114904 79 95 1.0 3.0 0.00 0.10 0.00 67 1013.8
20260904114403 79 125 2.0 5.0 0.00 0.10 0.00 67 1013.8
20260904113904 79 97 1.0 5.0 0.00 0.10 0.00 67 1013.8
20260904113403 79 127 2.0 5.0 0.00 0.10 0.00 67 1013.8
20260904112904 79 170 1.0 3.0 0.00 0.10 0.00 67 1013.7
20260904112403 80 114 1.0 3.0 0.00 0.10 0.00 66 1013.6
20260904111904 80 107 2.0 3.0 0.00 0.10 0.00 66 1013.6
20260904111404 80 107 2.0 6.0 0.00 0.10 0.00 66 1013.7
20260904110903 80 113 2.0 6.0 0.00 0.10 0.00 66 1013.6
20260904105903 80 104 2.0 7.0 0.00 0.10 0.00 66 1013.6
20260904105404 80 117 2.0 7.0 0.00 0.10 0.00 66 1013.6
20260904104903 80 115 2.0 7.0 0.00 0.10 0.00 66 1013.5
20260904104403 80 108 3.0 7.0 0.00 0.10 0.00 66 1013.5
20260904103904 80 101 3.0 7.0 0.00 0.10 0.00 66 1013.5
20260904103404 80 112 2.0 7.0 0.00 0.10 0.00 66 1013.6
20260904102904 80 116 2.0 6.0 0.00 0.10 0.00 66 1013.6
20260904102404 80 99 2.0 6.0 0.00 0.10 0.00 66 1013.6
20260904101904 80 108 2.0 7.0 0.00 0.10 0.00 66 1013.7
20260904101404 80 118 2.0 7.0 0.00 0.10 0.00 66 1013.7
20260904100903 80 121 2.0 6.0 0.00 0.10 0.00 66 1013.6
20260904100403 80 87 2.0 6.0 0.00 0.10 0.00 66 1013.5
20260904095903 80 125 1.0 7.0 0.00 0.10 0.00 66 1013.5
20260904095404 80 103 2.0 7.0 0.00 0.10 0.00 66 1013.4
20260904094904 80 112 2.0 7.0 0.00 0.10 0.00 66 1013.4
20260904093904 80 112 2.0 8.0 0.00 0.10 0.00 66 1013.3
20260904093403 80 110 2.0 7.0 0.00 0.10 0.00 66 1013.3
20260904091904 80 122 3.0 8.0 0.00 0.10 0.00 66 1013.1
20260904091404 80 125 2.0 3.0 0.00 0.10 0.00 67 1013.1
20260904090404 80 121 2.0 6.0 0.00 0.10 0.00 67 1013.3
20260904085903 80 124 2.0 6.0 0.00 0.10 0.00 67 1013.3
20260904085403 80 116 2.0 3.0 0.00 0.10 0.00 67 1013.3
20260904084904 80 141 2.0 3.0 0.00 0.10 0.00 67 1013.4
20260904083904 80 107 2.0 3.0 0.00 0.10 0.00 67 1013.4
20260904083404 80 122 1.0 3.0 0.00 0.10 0.00 67 1013.4
20260904082903 80 133 1.0 3.0 0.00 0.10 0.00 68 1013.4
20260904082404 80 111 1.0 3.0 0.00 0.10 0.00 68 1013.5
20260904081904 80 116 1.0 5.0 0.00 0.10 0.00 68 1013.5
20260904081403 80 101 1.0 5.0 0.00 0.10 0.00 68 1013.5
20260904080904 80 111 2.0 3.0 0.00 0.10 0.00 68 1013.5
20260904080403 80 117 1.0 3.0 0.00 0.10 0.00 68 1013.6
20260904075904 80 175 1.0 7.0 0.00 0.10 0.00 67 1013.6
20260904075403 80 115 0.0 7.0 0.00 0.10 0.00 67 1013.6
20260904074904 80 108 2.0 7.0 0.00 0.10 0.00 67 1013.5
20260904074403 80 116 1.0 3.0 0.00 0.10 0.00 66 1013.6
20260904073904 80 121 2.0 3.0 0.00 0.10 0.00 66 1013.5
20260904073403 80 96 1.0 3.0 0.00 0.10 0.00 66 1013.6
20260904072904 80 134 1.0 5.0 0.00 0.10 0.00 66 1013.6
20260904072403 80 98 2.0 5.0 0.00 0.10 0.00 66 1013.6
20260904071904 80 114 1.0 5.0 0.00 0.10 0.00 66 1013.5
20260904071404 80 103 2.0 6.0 0.00 0.10 0.00 66 1013.6
20260904070903 80 145 1.0 6.0 0.00 0.10 0.00 66 1013.6
20260904070404 80 142 1.0 6.0 0.00 0.10 0.00 66 1013.5
20260904065403 80 90 2.0 6.0 0.00 0.10 0.10 65 1013.6
20260904064903 80 95 1.0 6.0 0.00 0.10 0.10 66 1013.6
20260904064404 80 165 2.0 5.0 0.00 0.10 0.10 66 1013.6
20260904063904 80 153 2.0 3.0 0.00 0.10 0.10 66 1013.6
20260904063404 80 101 1.0 3.0 0.00 0.10 0.10 67 1013.6
20260904062904 80 119 1.0 3.0 0.00 0.10 0.10 67 1013.5
20260904062404 80 158 1.0 2.0 0.00 0.10 0.10 67 1013.6
20260904061904 80 148 0.0 3.0 0.00 0.10 0.10 67 1013.6
20260904061403 80 114 1.0 3.0 0.00 0.10 0.10 67 1013.6
20260904060903 80 122 1.0 3.0 0.00 0.10 0.10 68 1013.6
20260904055904 80 119 0.0 3.0 0.00 0.10 0.10 67 1013.6
20260904055404 81 133 0.0 6.0 0.00 0.10 0.10 67 1013.5
20260904054903 81 140 1.0 6.0 0.00 0.10 0.10 67 1013.5
20260904054404 80 102 2.0 6.0 0.00 0.10 0.10 66 1013.4
20260904053904 80 143 0.0 3.0 0.00 0.10 0.10 68 1013.4
20260904053404 80 132 1.0 3.0 0.00 0.10 0.10 69 1013.4
20260904052903 80 101 1.0 3.0 0.00 0.10 0.10 71 1013.4
20260904051403 79 140 0.0 3.0 0.05 0.10 0.10 74 1013.3
20260904050903 79 118 1.0 7.0 0.07 0.10 0.10 74 1013.3
20260904050404 79 116 1.0 7.0 0.08 0.10 0.10 75 1013.3
20260904045904 79 132 2.0 6.0 0.08 0.10 0.10 75 1013.4
20260904044903 78 115 2.0 7.0 0.10 0.10 0.10 76 1013.5
20260904044404 78 113 2.0 7.0 0.10 0.10 0.10 76 1013.4
20260904043904 78 104 1.0 8.0 0.10 0.10 0.10 77 1013.4
20260904043403 78 83 1.0 8.0 0.10 0.10 0.10 77 1013.5
20260904042903 77 108 3.0 10.0 0.10 0.10 0.10 77 1013.5
20260904042403 77 101 4.0 10.0 0.10 0.10 0.10 76 1013.5
20260904041903 78 111 7.0 10.0 0.09 0.09 0.09 76 1013.7
20260904040903 79 112 3.0 9.0 0.03 0.03 0.03 72 1013.8
20260904040403 81 116 3.0 8.0 0.02 0.02 0.02 69 1013.8
20260904035904 83 213 2.0 7.0 0.02 0.02 0.02 66 1013.9
20260904035404 85 126 2.0 9.0 0.00 0.00 0.00 58 1013.6
20260904034903 85 103 2.0 9.0 0.00 0.00 0.00 55 1013.3
20260904034404 85 74 2.0 9.0 0.00 0.00 0.00 55 1013.2
20260904033904 85 104 3.0 9.0 0.00 0.00 0.00 55 1013.1
20260904033404 85 161 1.0 8.0 0.00 0.00 0.00 54 1013.0
20260904032903 86 134 3.0 9.0 0.00 0.00 0.00 54 1013.1
20260904032404 86 104 2.0 9.0 0.00 0.00 0.00 54 1013.0
20260904031905 86 91 3.0 8.0 0.00 0.00 0.00 54 1012.9
20260904031404 86 102 3.0 9.0 0.00 0.00 0.00 54 1012.7
20260904030904 86 143 3.0 12.0 0.00 0.00 0.00 54 1012.6
20260904030404 86 136 5.0 12.0 0.00 0.00 0.00 53 1012.6
20260904025904 86 143 3.0 10.0 0.00 0.00 0.00 53 1012.5
20260904025404 86 96 5.0 10.0 0.00 0.00 0.00 53 1012.3
20260904024403 86 115 3.0 8.0 0.00 0.00 0.00 53 1012.2
20260904023904 86 119 3.0 9.0 0.00 0.00 0.00 52 1012.1
20260904023403 87 124 5.0 9.0 0.00 0.00 0.00 52 1012.0
20260904022903 87 132 3.0 8.0 0.00 0.00 0.00 51 1012.0
20260904022402 87 110 2.0 9.0 0.00 0.00 0.00 51 1012.0
20260904021403 88 116 3.0 9.0 0.00 0.00 0.00 49 1012.0
20260904020903 88 99 3.0 9.0 0.00 0.00 0.00 48 1011.9
20260904020402 88 120 5.0 8.0 0.00 0.00 0.00 47 1011.9
20260904015903 88 106 2.0 6.0 0.00 0.00 0.00 46 1012.0
20260904015403 89 91 2.0 10.0 0.00 0.00 0.00 46 1011.8
20260904014902 90 127 3.0 10.0 0.00 0.00 0.00 44 1011.8
20260904014403 90 106 2.0 3.0 0.00 0.00 0.00 44 1011.6
20260904013902 90 160 2.0 6.0 0.00 0.00 0.00 44 1011.6
20260904013403 90 123 1.0 6.0 0.00 0.00 0.00 44 1011.5
20260904012902 90 132 2.0 8.0 0.00 0.00 0.00 45 1011.6
20260904012402 90 101 3.0 12.0 0.00 0.00 0.00 46 1011.5
20260904011903 90 95 2.0 12.0 0.00 0.00 0.00 46 1011.4
20260904011402 90 114 3.0 8.0 0.00 0.00 0.00 46 1011.3
20260904010902 90 110 3.0 8.0 0.00 0.00 0.00 46 1011.2